Location: GMARS
(34.2910°N, 116.3838°W)
Time: 22:48:13
(UTC-08:00)

Daily predictions for brighter satellites

Satellite Brightness Start Highest point End
(mag) Time Altitude Azimuth Time Altitude Azimuth Time Altitude Azimuth
ATLAS 2AS CENTAUR R/B 3.9 16:50:37 10° N 16:57:13 27° NE 17:03:29 10° E
Cosmos 1378 Rocket 3.9 16:55:20 10° SSW 16:59:37 70° W 17:03:54 10° N
Cosmos 1844 Rocket 2.8 16:55:30 10° S 17:00:55 57° ESE 17:06:25 10° NNE
Cosmos 2181 Rocket 4.1 16:55:40 10° S 17:01:56 76° E 17:08:20 10° N
MOS 1 4.3 16:57:43 10° SSE 17:03:15 60° ENE 17:08:49 10° N
SL-27 R/B 4.2 17:02:08 10° NNE 17:04:19 15° ENE 17:06:29 10° ESE
BREEZE-M DEB (TANK) 4.0 17:04:48 10° WNW 17:06:11 14° NNW 17:07:26 10° N
Cosmos 2218 Rocket 4.5 17:00:29 10° NNE 17:06:15 37° ENE 17:11:55 10° SE
ISS -2.8 17:04:35 10° WSW 17:07:48 56° NW 17:11:03 10° NE
Cosmos 1844 4.0 17:02:53 10° S 17:08:12 47° ESE 17:13:29 10° NNE
SL-8 R/B 4.3 17:08:14 10° SSW 17:12:43 42° SE 17:17:03 11° ENE
Cosmos 1455 Rocket 4.0 17:10:48 10° NNE 17:14:28 25° ENE 17:18:08 10° SE
SJ-7 4.5 17:12:15 10° SSE 17:16:23 62° ENE 17:20:35 10° N
CORIOLIS 4.1 17:15:34 10° SSE 17:20:57 71° ENE 17:26:20 10° N
CZ-4 R/B 4.5 17:19:22 10° SSE 17:23:25 57° ENE 17:27:29 10° N
Cosmos 1048 Rocket 4.2 17:20:04 10° NNW 17:25:23 80° WSW 17:30:43 10° SSE
CZ-3B DEB 1.8 17:23:02 10° SW 17:26:04 75° NW 17:33:37 10° NE
Cosmos 2278 Rocket 2.7 17:21:19 10° S 17:26:31 40° ESE 17:31:45 10° NE
Cosmos 2341 Rocket 4.4 17:20:43 10° NNW 17:26:52 69° W 17:33:01 10° S
Cosmos 1295 Rocket 4.5 17:21:13 10° N 17:27:22 89° E 17:33:26 10° S
Cosmos 158 Rocket 4.0 17:22:33 10° NNW 17:27:54 72° ENE 17:33:07 10° SSE
COSMOS 2406 3.2 17:23:20 10° NNW 17:29:03 74° ENE 17:34:47 10° SSE
Cosmos 1484 Rocket 3.3 17:25:57 10° SE 17:29:23 34° ENE 17:32:48 10° N
CZ-3A R/B 4.2 17:25:07 10° W 17:29:39 36° NNW 17:48:08 10° NE
CZ-2C R/B 2.7 17:28:34 10° S 17:33:24 73° WSW 17:38:28 10° NNW
SPOT 3 Rocket 3.9 17:30:38 10° S 17:35:48 68° WSW 17:40:58 10° NNW
Tiangong 1 3.0 17:35:36 10° S 17:37:30 16° SE 17:38:20 14° ESE
Meteor 1-5 Rocket 4.3 17:34:14 10° NNW 17:39:38 78° W 17:45:12 10° S
Cosmos 1238 Rocket 1.9 17:37:29 10° S 17:40:32 87° E 17:43:29 10° N
Okean 1 3.3 17:45:37 10° S 17:49:35 62° E 17:53:36 10° NNE
IDEFIX/ARIANE 42P 3.5 17:45:08 10° S 17:50:11 52° W 17:55:15 10° NNW
COSMOS 2441 4.3 17:46:01 10° SSE 17:50:51 87° E 17:55:44 10° N
Cosmos 2082 Rocket 4.0 17:51:38 10° NNE 17:52:44 13° NNE 17:52:44 13° NNE
Nadezhda 3 Rocket 4.1 17:51:40 10° SSE 17:57:32 49° E 18:03:29 10° NNE
Hubble Space Telescope 2.9 17:55:45 10° WSW 17:58:59 22° SSW 18:02:12 10° SE
COSMO-SKYMED 1 2.7 17:55:22 10° N 17:59:42 75° WNW 18:04:01 10° SSW
Cosmos 1544 Rocket 4.0 17:58:05 10° NNW 18:02:30 63° W 18:06:53 10° S
Cosmos 1500 3.4 18:03:20 40° NE 18:03:56 44° E 18:07:36 10° SSE
Meteor 1-28 Rocket 3.1 18:04:52 26° NNE 18:06:54 74° ESE 18:10:40 10° S
Meteor 2-21 4.4 18:03:38 10° N 18:09:43 58° E 18:15:43 10° SSE
Cosmos 1346 Rocket 2.6 18:08:58 10° S 18:12:53 77° E 18:14:10 41° NNE
METEOR-M 4.2 18:12:35 10° SSE 18:17:43 52° ENE 18:22:52 10° N
Cosmos 1812 4.4 18:14:13 10° SW 18:17:44 34° W 18:21:17 10° NNW
Cosmos 1536 Rocket 4.5 18:13:36 10° SSW 18:17:54 49° W 18:22:15 10° N
NOAA 12 4.0 18:15:05 10° SSE 18:20:19 66° ENE 18:25:33 10° N
OTV 4 2.0 18:24:46 10° WNW 18:26:41 35° W 18:26:41 35° W
Cosmos 494 Rocket 4.1 18:23:57 10° NNW 18:29:11 75° WSW 18:34:24 10° S
Cosmos 1975 3.6 18:29:36 10° NNW 18:33:33 52° W 18:37:28 10° S
Meteor 2-14 Rocket 4.3 18:28:29 10° N 18:34:36 68° E 18:40:42 10° SSE
NOSS 3-3 (A) 4.5 18:30:05 10° SW 18:36:06 57° NW 18:39:53 25° NNE
NOSS 3-3 (C) 4.4 18:30:11 10° SW 18:36:12 58° NW 18:39:57 25° NNE
Cosmos 2251 Rocket 4.3 18:31:29 10° NNW 18:36:40 53° WSW 18:41:48 10° S
Okean 1-7 Rocket 3.5 18:34:27 10° S 18:38:57 87° WSW 18:38:57 87° WSW
ATLAS 2AS CENTAUR R/B 3.1 18:41:00 10° NW 18:48:57 71° WSW 18:56:14 10° SSE
Meteor 2-21 Rocket 4.4 18:42:57 10° N 18:49:09 81° W 18:55:17 10° S
GEOS 3 Rocket 4.3 18:44:26 10° SSE 18:49:22 50° WSW 18:54:20 10° NW
Cosmos 921 Rocket 4.2 18:46:42 10° SSW 18:49:08 35° SSW 18:49:08 35° SSW
Cosmos 2297 3.7 18:47:02 10° SSW 18:52:40 76° WNW 18:53:32 62° N
Meteor 2-16 Rocket 4.3 18:49:28 10° N 18:55:35 89° W 19:01:39 10° S
Meteor 1-19 Rocket 4.5 18:52:36 10° SSW 18:58:18 69° W 19:00:13 43° NNW
Timation 2 Rocket 4.3 18:52:49 10° NNW 18:58:18 55° NNE 18:58:18 55° NNE
Cosmos 1535 Rocket 4.3 18:53:54 10° N 19:00:14 87° E 19:06:27 10° S
BREEZE M DEB (TANK) 4.2 18:55:12 10° WSW 19:01:07 29° NW 19:01:07 29° NW
Timation 1 Rocket 4.4 19:02:01 10° SSW 19:07:54 72° WNW 19:07:54 72° WNW
Cosmos 2278 Rocket 4.1 19:06:10 10° WSW 19:10:41 24° WNW 19:13:52 15° NNW
ATLAS 3B CENTAUR R/B 4.0 19:51:56 10° W 19:59:39 36° WSW 19:59:39 36° WSW
